| time (UTC) | temp F | wind direction | speed knots | gust knots | rain 1hr in | rain 24hr in | rain mn in | humidity % | barometer mb |
| 20260508181553 | 53 | 242 | 14.8 | 0.0 | 0.00 | 0.00 | 0.00 | 68 | 1009.3 |
| 20260508181037 | 53 | 242 | 14.8 | 0.0 | 0.00 | 0.00 | 0.00 | 69 | 1009.3 |
| 20260508180538 | 53 | 246 | 13.9 | 0.0 | 0.00 | 0.00 | 0.00 | 64 | 1009.3 |
| 20260508180038 | 53 | 231 | 13.9 | 0.0 | 0.00 | 0.00 | 0.00 | 66 | 1009.3 |
| 20260508175536 | 52 | 252 | 13.9 | 0.0 | 0.00 | 0.00 | 0.00 | 66 | 1009.3 |
| 20260508175038 | 52 | 253 | 14.8 | 0.0 | 0.00 | 0.00 | 0.00 | 67 | 1009.3 |
| 20260508174545 | 52 | 248 | 13.0 | 0.0 | 0.00 | 0.00 | 0.00 | 67 | 1009.4 |
| 20260508174035 | 52 | 238 | 13.9 | 0.0 | 0.00 | 0.00 | 0.00 | 66 | 1009.5 |
| 20260508173535 | 52 | 246 | 14.8 | 0.0 | 0.00 | 0.00 | 0.00 | 64 | 1009.6 |
| 20260508173035 | 52 | 247 | 13.9 | 0.0 | 0.00 | 0.00 | 0.00 | 64 | 1009.6 |
| 20260508172535 | 52 | 254 | 11.3 | 0.0 | 0.00 | 0.00 | 0.00 | 65 | 1009.7 |
| 20260508172035 | 52 | 217 | 11.3 | 0.0 | 0.00 | 0.00 | 0.00 | 62 | 1009.6 |
| 20260508171535 | 52 | 221 | 12.2 | 0.0 | 0.00 | 0.00 | 0.00 | 61 | 1009.8 |
| 20260508171037 | 52 | 251 | 12.2 | 0.0 | 0.00 | 0.00 | 0.00 | 63 | 1009.8 |
| 20260508170534 | 52 | 245 | 13.9 | 0.0 | 0.00 | 0.00 | 0.00 | 60 | 1009.9 |
| 20260508170035 | 52 | 241 | 15.6 | 0.0 | 0.00 | 0.00 | 0.00 | 62 | 1009.9 |
| 20260508165537 | 52 | 247 | 15.6 | 0.0 | 0.00 | 0.00 | 0.00 | 61 | 1009.9 |
| 20260508165034 | 53 | 232 | 12.2 | 0.0 | 0.00 | 0.00 | 0.00 | 60 | 1010.0 |
| 20260508164533 | 53 | 256 | 8.7 | 0.0 | 0.00 | 0.00 | 0.00 | 57 | 1010.0 |
| 20260508164034 | 53 | 248 | 9.6 | 0.0 | 0.00 | 0.00 | 0.00 | 58 | 1010.0 |
| 20260508163535 | 53 | 238 | 13.0 | 0.0 | 0.00 | 0.00 | 0.00 | 62 | 1009.9 |
| 20260508163038 | 53 | 259 | 16.5 | 0.0 | 0.00 | 0.00 | 0.00 | 64 | 1010.0 |
| 20260508162531 | 52 | 224 | 15.6 | 0.0 | 0.00 | 0.00 | 0.00 | 65 | 1009.9 |
| 20260508162033 | 52 | 257 | 16.5 | 0.0 | 0.00 | 0.00 | 0.00 | 63 | 1009.8 |
| 20260508161535 | 52 | 251 | 16.5 | 0.0 | 0.00 | 0.00 | 0.00 | 58 | 1009.8 |
| 20260508161031 | 53 | 246 | 13.9 | 0.0 | 0.00 | 0.00 | 0.00 | 59 | 1009.9 |
| 20260508160529 | 52 | 233 | 13.9 | 0.0 | 0.00 | 0.00 | 0.00 | 61 | 1009.9 |
| 20260508160031 | 52 | 249 | 15.6 | 0.0 | 0.00 | 0.00 | 0.00 | 66 | 1009.9 |
| 20260508155532 | 51 | 240 | 14.8 | 0.0 | 0.00 | 0.00 | 0.00 | 65 | 1009.9 |
| 20260508155031 | 50 | 253 | 12.2 | 0.0 | 0.00 | 0.00 | 0.00 | 65 | 1009.8 |
| 20260508154528 | 50 | 263 | 12.2 | 0.0 | 0.00 | 0.00 | 0.00 | 61 | 1009.9 |
| 20260508154031 | 49 | 290 | 11.3 | 0.0 | 0.00 | 0.00 | 0.00 | 59 | 1010.0 |
| 20260508153531 | 49 | 289 | 10.4 | 0.0 | 0.00 | 0.00 | 0.00 | 62 | 1010.0 |
| 20260508153027 | 49 | 277 | 13.0 | 0.0 | 0.00 | 0.00 | 0.00 | 64 | 1010.1 |
| 20260508152528 | 49 | 274 | 13.9 | 0.0 | 0.00 | 0.00 | 0.00 | 60 | 1010.0 |
| 20260508152027 | 49 | 267 | 14.8 | 0.0 | 0.00 | 0.00 | 0.00 | 63 | 1009.8 |
| 20260508151528 | 50 | 264 | 14.8 | 0.0 | 0.00 | 0.00 | 0.00 | 63 | 1009.8 |
| 20260508151027 | 50 | 262 | 13.0 | 0.0 | 0.00 | 0.00 | 0.00 | 58 | 1009.8 |
| 20260508150526 | 50 | 279 | 13.0 | 0.0 | 0.00 | 0.00 | 0.00 | 61 | 1009.8 |
| 20260508150032 | 51 | 269 | 12.2 | 0.0 | 0.00 | 0.00 | 0.00 | 62 | 1009.7 |
| 20260508145527 | 51 | 263 | 11.3 | 0.0 | 0.00 | 0.00 | 0.00 | 62 | 1009.8 |
| 20260508145027 | 51 | 263 | 10.4 | 0.0 | 0.00 | 0.00 | 0.00 | 60 | 1009.8 |
| 20260508144526 | 51 | 280 | 11.3 | 0.0 | 0.00 | 0.00 | 0.00 | 58 | 1009.9 |
| 20260508144026 | 51 | 243 | 10.4 | 0.0 | 0.00 | 0.00 | 0.00 | 62 | 1009.8 |
| 20260508143522 | 50 | 248 | 8.7 | 0.0 | 0.00 | 0.00 | 0.00 | 66 | 1009.8 |
| 20260508143025 | 50 | 248 | 10.4 | 0.0 | 0.00 | 0.00 | 0.00 | 62 | 1009.7 |
| 20260508142523 | 49 | 243 | 10.4 | 0.0 | 0.00 | 0.00 | 0.00 | 66 | 1009.7 |
| 20260508142024 | 49 | 277 | 7.0 | 0.0 | 0.00 | 0.00 | 0.00 | 59 | 1009.7 |
| 20260508141519 | 49 | 267 | 7.0 | 0.0 | 0.00 | 0.00 | 0.00 | 63 | 1009.7 |
| 20260508141018 | 48 | 232 | 7.8 | 0.0 | 0.00 | 0.00 | 0.00 | 64 | 1009.7 |
| 20260508140516 | 48 | 242 | 7.0 | 0.0 | 0.00 | 0.00 | 0.00 | 64 | 1009.7 |
| 20260508140025 | 48 | 244 | 6.1 | 0.0 | 0.00 | 0.00 | 0.00 | 61 | 1009.6 |
| 20260508135516 | 48 | 293 | 5.2 | 0.0 | 0.00 | 0.00 | 0.00 | 61 | 1009.7 |
| 20260508135016 | 48 | 279 | 6.1 | 0.0 | 0.00 | 0.00 | 0.00 | 62 | 1009.7 |
| 20260508134526 | 48 | 252 | 8.7 | 0.0 | 0.00 | 0.00 | 0.00 | 66 | 1009.8 |
| 20260508134015 | 48 | 259 | 10.4 | 0.0 | 0.00 | 0.00 | 0.00 | 68 | 1009.9 |
| 20260508133513 | 47 | 279 | 11.3 | 0.0 | 0.00 | 0.00 | 0.00 | 64 | 1009.8 |
| 20260508133013 | 47 | 265 | 10.4 | 0.0 | 0.00 | 0.00 | 0.00 | 64 | 1009.9 |
| 20260508132515 | 47 | 266 | 9.6 | 0.0 | 0.00 | 0.00 | 0.00 | 64 | 1009.9 |
| 20260508132012 | 47 | 281 | 9.6 | 0.0 | 0.00 | 0.00 | 0.00 | 68 | 1009.9 |
| 20260508131511 | 47 | 257 | 10.4 | 0.0 | 0.00 | 0.00 | 0.00 | 71 | 1009.9 |
| 20260508131010 | 47 | 257 | 11.3 | 0.0 | 0.00 | 0.00 | 0.00 | 72 | 1010.0 |
| 20260508130509 | 46 | 248 | 10.4 | 0.0 | 0.00 | 0.00 | 0.00 | 73 | 1010.1 |
| 20260508130009 | 46 | 252 | 9.6 | 0.0 | 0.00 | 0.00 | 0.00 | 71 | 1010.1 |
| 20260508125508 | 46 | 250 | 8.7 | 0.0 | 0.00 | 0.00 | 0.00 | 72 | 1010.1 |
| 20260508125009 | 46 | 286 | 8.7 | 0.0 | 0.00 | 0.00 | 0.00 | 69 | 1010.1 |
| 20260508124510 | 46 | 271 | 8.7 | 0.0 | 0.00 | 0.00 | 0.00 | 71 | 1010.1 |
| 20260508124009 | 45 | 279 | 8.7 | 0.0 | 0.00 | 0.00 | 0.00 | 68 | 1010.3 |
| 20260508123505 | 45 | 284 | 7.8 | 0.0 | 0.00 | 0.00 | 0.00 | 73 | 1010.3 |
| 20260508123005 | 45 | 265 | 8.7 | 0.0 | 0.00 | 0.00 | 0.00 | 74 | 1010.2 |
| 20260508122503 | 45 | 261 | 9.6 | 0.0 | 0.00 | 0.00 | 0.00 | 76 | 1010.3 |
| 20260508122002 | 44 | 251 | 9.6 | 0.0 | 0.00 | 0.00 | 0.00 | 78 | 1010.2 |
| 20260508121501 | 43 | 234 | 8.7 | 0.0 | 0.00 | 0.00 | 0.00 | 78 | 1010.2 |
| 20260508121059 | 43 | 217 | 7.8 | 0.0 | 0.00 | 0.00 | 0.00 | 79 | 1010.1 |
| 20260508120600 | 42 | 265 | 7.8 | 0.0 | 0.00 | 0.00 | 0.00 | 79 | 1010.2 |
| 20260508120058 | 42 | 243 | 7.0 | 0.0 | 0.00 | 0.00 | 0.00 | 80 | 1010.3 |
| 20260508115557 | 42 | 249 | 7.0 | 0.0 | 0.00 | 0.00 | 0.00 | 80 | 1010.3 |
| 20260508115056 | 41 | 252 | 5.2 | 0.0 | 0.00 | 0.00 | 0.00 | 80 | 1010.3 |
| 20260508114555 | 41 | 229 | 4.3 | 0.0 | 0.00 | 0.00 | 0.00 | 80 | 1010.3 |
| 20260508114057 | 41 | 226 | 3.5 | 0.0 | 0.00 | 0.00 | 0.00 | 80 | 1010.2 |
| 20260508113553 | 41 | 223 | 2.6 | 0.0 | 0.00 | 0.00 | 0.00 | 80 | 1010.2 |
| 20260508113101 | 41 | 223 | 2.6 | 0.0 | 0.00 | 0.00 | 0.00 | 80 | 1010.2 |
| 20260508112552 | 40 | 225 | 4.3 | 0.0 | 0.00 | 0.00 | 0.00 | 80 | 1010.2 |
| 20260508112055 | 40 | 242 | 3.5 | 0.0 | 0.00 | 0.00 | 0.00 | 79 | 1010.2 |
| 20260508111552 | 40 | 222 | 1.7 | 0.0 | 0.00 | 0.00 | 0.00 | 79 | 1010.2 |
| 20260508111055 | 40 | 226 | 1.7 | 0.0 | 0.00 | 0.00 | 0.00 | 79 | 1010.1 |
| 20260508110554 | 40 | 229 | 1.7 | 0.0 | 0.00 | 0.00 | 0.00 | 79 | 1010.1 |
| 20260508110051 | 40 | 225 | 3.5 | 0.0 | 0.00 | 0.00 | 0.00 | 79 | 1010.1 |
| 20260508105550 | 40 | 227 | 2.6 | 0.0 | 0.00 | 0.00 | 0.00 | 79 | 1010.0 |
| 20260508105048 | 40 | 180 | 3.5 | 0.0 | 0.00 | 0.00 | 0.00 | 79 | 1009.9 |
| 20260508104549 | 40 | 225 | 3.5 | 0.0 | 0.00 | 0.00 | 0.00 | 80 | 1009.9 |
| 20260508104049 | 40 | 225 | 5.2 | 0.0 | 0.00 | 0.00 | 0.00 | 81 | 1009.8 |
| 20260508103548 | 40 | 228 | 8.7 | 0.0 | 0.00 | 0.00 | 0.00 | 83 | 1009.8 |
| 20260508103050 | 39 | 250 | 8.7 | 0.0 | 0.00 | 0.00 | 0.00 | 84 | 1009.8 |
| 20260508102547 | 39 | 260 | 7.8 | 0.0 | 0.00 | 0.00 | 0.00 | 84 | 1009.8 |
| 20260508102046 | 39 | 242 | 5.2 | 0.0 | 0.00 | 0.00 | 0.00 | 83 | 1009.7 |
| 20260508101546 | 39 | 240 | 5.2 | 0.0 | 0.00 | 0.00 | 0.00 | 83 | 1009.7 |
| 20260508101046 | 39 | 257 | 4.3 | 0.0 | 0.00 | 0.00 | 0.00 | 84 | 1009.6 |
| 20260508100549 | 39 | 294 | 2.6 | 0.0 | 0.00 | 0.00 | 0.00 | 82 | 1009.6 |
| 20260508100045 | 38 | 258 | 2.6 | 0.0 | 0.00 | 0.00 | 0.00 | 85 | 1009.5 |
| 20260508095545 | 38 | 308 | 1.7 | 0.0 | 0.00 | 0.00 | 0.00 | 85 | 1009.6 |
| 20260508095044 | 38 | 325 | 0.9 | 0.0 | 0.00 | 0.00 | 0.00 | 86 | 1009.6 |
| 20260508094606 | 38 | 339 | 0.9 | 0.0 | 0.00 | 0.00 | 0.00 | 85 | 1009.5 |
| 20260508094046 | 37 | 163 | 0.9 | 0.0 | 0.00 | 0.00 | 0.00 | 85 | 1009.4 |
| 20260508093542 | 37 | 161 | 1.7 | 0.0 | 0.00 | 0.00 | 0.00 | 86 | 1009.2 |
| 20260508093043 | 37 | 109 | 1.7 | 0.0 | 0.00 | 0.00 | 0.00 | 86 | 1009.2 |
| 20260508092542 | 37 | 82 | 1.7 | 0.0 | 0.00 | 0.00 | 0.00 | 85 | 1009.2 |
| 20260508092040 | 37 | 146 | 1.7 | 0.0 | 0.00 | 0.00 | 0.00 | 86 | 1009.0 |
| 20260508091542 | 37 | 133 | 0.9 | 0.0 | 0.00 | 0.00 | 0.00 | 86 | 1009.1 |
| 20260508091040 | 37 | 148 | 1.7 | 0.0 | 0.00 | 0.00 | 0.00 | 86 | 1009.0 |
| 20260508090539 | 37 | 150 | 1.7 | 0.0 | 0.00 | 0.00 | 0.00 | 86 | 1009.1 |
| 20260508090043 | 37 | 136 | 0.0 | 0.0 | 0.00 | 0.00 | 0.00 | 86 | 1008.9 |
| 20260508085539 | 37 | 144 | 0.9 | 0.0 | 0.00 | 0.00 | 0.00 | 85 | 1009.0 |
| 20260508085041 | 36 | 144 | 0.9 | 0.0 | 0.00 | 0.00 | 0.00 | 85 | 1008.9 |
| 20260508084538 | 37 | 143 | 0.0 | 0.0 | 0.00 | 0.00 | 0.00 | 85 | 1008.9 |
| 20260508084038 | 36 | 150 | 0.9 | 0.0 | 0.00 | 0.00 | 0.00 | 85 | 1008.9 |
| 20260508083542 | 37 | 150 | 2.6 | 0.0 | 0.00 | 0.00 | 0.00 | 85 | 1008.7 |
| 20260508083036 | 36 | 148 | 3.5 | 0.0 | 0.00 | 0.00 | 0.00 | 85 | 1008.6 |
| 20260508082537 | 36 | 118 | 2.6 | 0.0 | 0.00 | 0.00 | 0.00 | 85 | 1008.6 |
| 20260508082037 | 36 | 121 | 3.5 | 0.0 | 0.00 | 0.00 | 0.00 | 86 | 1008.7 |
| 20260508081558 | 36 | 128 | 2.6 | 0.0 | 0.00 | 0.00 | 0.00 | 86 | 1008.6 |
| 20260508081035 | 36 | 138 | 1.7 | 0.0 | 0.00 | 0.00 | 0.00 | 85 | 1008.7 |
| 20260508080535 | 36 | 149 | 3.5 | 0.0 | 0.00 | 0.00 | 0.00 | 85 | 1008.8 |
| 20260508080041 | 36 | 136 | 4.3 | 0.0 | 0.00 | 0.00 | 0.00 | 87 | 1008.7 |
| 20260508075536 | 36 | 130 | 4.3 | 0.0 | 0.00 | 0.00 | 0.00 | 87 | 1008.6 |
| 20260508075039 | 36 | 119 | 3.5 | 0.0 | 0.00 | 0.00 | 0.00 | 87 | 1008.7 |
| 20260508074535 | 36 | 135 | 2.6 | 0.0 | 0.00 | 0.00 | 0.00 | 86 | 1008.6 |
| 20260508074035 | 36 | 149 | 2.6 | 0.0 | 0.00 | 0.00 | 0.00 | 85 | 1008.6 |
| 20260508073535 | 36 | 148 | 1.7 | 0.0 | 0.00 | 0.00 | 0.00 | 85 | 1008.6 |
| 20260508073038 | 36 | 146 | 0.9 | 0.0 | 0.00 | 0.00 | 0.00 | 86 | 1008.6 |
| 20260508072534 | 35 | 146 | 2.6 | 0.0 | 0.00 | 0.00 | 0.00 | 86 | 1008.6 |
| 20260508072034 | 35 | 145 | 4.3 | 0.0 | 0.00 | 0.00 | 0.00 | 85 | 1008.6 |
| 20260508071541 | 35 | 136 | 3.5 | 0.0 | 0.00 | 0.00 | 0.00 | 86 | 1008.5 |
| 20260508071033 | 35 | 150 | 1.7 | 0.0 | 0.00 | 0.00 | 0.00 | 86 | 1008.5 |
| 20260508070533 | 35 | 150 | 1.7 | 0.0 | 0.00 | 0.00 | 0.00 | 86 | 1008.5 |
| 20260508070035 | 35 | 150 | 1.7 | 0.0 | 0.00 | 0.00 | 0.00 | 86 | 1008.5 |
| 20260508065534 | 35 | 140 | 2.6 | 0.0 | 0.00 | 0.00 | 0.00 | 86 | 1008.4 |
| 20260508065033 | 35 | 141 | 2.6 | 0.0 | 0.00 | 0.00 | 0.00 | 86 | 1008.4 |
| 20260508064533 | 35 | 138 | 2.6 | 0.0 | 0.00 | 0.00 | 0.00 | 86 | 1008.4 |
| 20260508064033 | 35 | 145 | 2.6 | 0.0 | 0.00 | 0.00 | 0.00 | 87 | 1008.5 |
| 20260508063534 | 35 | 360 | 2.6 | 0.0 | 0.00 | 0.00 | 0.00 | 87 | 1008.5 |
| 20260508063045 | 34 | 360 | 2.6 | 0.0 | 0.00 | 0.00 | 0.00 | 87 | 1008.6 |
| 20260508062533 | 34 | 360 | 2.6 | 0.0 | 0.00 | 0.00 | 0.00 | 87 | 1008.6 |
| 20260508062032 | 34 | 360 | 2.6 | 0.0 | 0.00 | 0.00 | 0.00 | 88 | 1008.6 |
| 20260508061532 | 34 | 360 | 3.5 | 0.0 | 0.00 | 0.00 | 0.00 | 88 | 1008.6 |
| 20260508061032 | 34 | 360 | 3.5 | 0.0 | 0.00 | 0.00 | 0.00 | 87 | 1008.6 |
| 20260508060531 | 34 | 360 | 3.5 | 0.0 | 0.00 | 0.00 | 0.00 | 86 | 1008.7 |
| 20260508060035 | 34 | 141 | 2.6 | 0.0 | 0.00 | 0.00 | 0.00 | 86 | 1008.7 |
| 20260508055531 | 34 | 143 | 3.5 | 0.0 | 0.00 | 0.00 | 0.00 | 86 | 1008.8 |
| 20260508055035 | 34 | 360 | 4.3 | 0.0 | 0.00 | 0.00 | 0.00 | 85 | 1008.7 |
| 20260508054531 | 34 | 141 | 4.3 | 0.0 | 0.00 | 0.00 | 0.00 | 85 | 1008.8 |
| 20260508054028 | 34 | 360 | 3.5 | 0.0 | 0.00 | 0.00 | 0.00 | 84 | 1008.8 |
| 20260508053527 | 34 | 360 | 2.6 | 0.0 | 0.00 | 0.00 | 0.00 | 83 | 1008.8 |
| 20260508053027 | 35 | 360 | 2.6 | 0.0 | 0.00 | 0.00 | 0.00 | 83 | 1008.8 |
| 20260508052529 | 35 | 360 | 2.6 | 0.0 | 0.00 | 0.00 | 0.00 | 83 | 1008.8 |
| 20260508052024 | 35 | 360 | 2.6 | 0.0 | 0.00 | 0.00 | 0.00 | 83 | 1008.7 |
| 20260508051524 | 35 | 360 | 2.6 | 0.0 | 0.00 | 0.00 | 0.00 | 83 | 1008.8 |
| 20260508051023 | 35 | 360 | 2.6 | 0.0 | 0.00 | 0.00 | 0.00 | 82 | 1008.7 |
| 20260508050522 | 36 | 360 | 3.5 | 0.0 | 0.00 | 0.00 | 0.00 | 81 | 1008.7 |
| 20260508050022 | 36 | 146 | 4.3 | 0.0 | 0.00 | 0.00 | 0.00 | 80 | 1008.7 |
| 20260508045522 | 36 | 144 | 4.3 | 0.0 | 0.00 | 0.00 | 0.00 | 81 | 1008.6 |
| 20260508045021 | 36 | 133 | 4.3 | 0.0 | 0.00 | 0.00 | 0.00 | 80 | 1008.6 |
| 20260508044526 | 37 | 144 | 4.3 | 0.0 | 0.00 | 0.00 | 0.00 | 79 | 1008.8 |
| 20260508044019 | 37 | 138 | 3.5 | 0.0 | 0.00 | 0.00 | 0.00 | 78 | 1008.7 |
| 20260508043516 | 37 | 146 | 3.5 | 0.0 | 0.00 | 0.00 | 0.00 | 77 | 1008.7 |
| 20260508043015 | 38 | 144 | 3.5 | 0.0 | 0.00 | 0.00 | 0.00 | 76 | 1008.6 |
| 20260508042518 | 38 | 144 | 2.6 | 0.0 | 0.00 | 0.00 | 0.00 | 76 | 1008.4 |
| 20260508042012 | 39 | 146 | 1.7 | 0.0 | 0.00 | 0.00 | 0.00 | 75 | 1008.4 |
| 20260508041512 | 39 | 146 | 3.5 | 0.0 | 0.00 | 0.00 | 0.00 | 74 | 1008.4 |
| 20260508041010 | 40 | 145 | 3.5 | 0.0 | 0.00 | 0.00 | 0.00 | 74 | 1008.3 |
| 20260508040509 | 40 | 146 | 3.5 | 0.0 | 0.00 | 0.00 | 0.00 | 73 | 1008.3 |
| 20260508040008 | 41 | 130 | 3.5 | 0.0 | 0.00 | 0.00 | 0.00 | 72 | 1008.3 |
| 20260508035507 | 41 | 130 | 3.5 | 0.0 | 0.00 | 0.00 | 0.00 | 71 | 1008.3 |
| 20260508035007 | 42 | 128 | 1.7 | 0.0 | 0.00 | 0.00 | 0.00 | 70 | 1008.4 |
| 20260508034507 | 43 | 227 | 2.6 | 0.0 | 0.00 | 0.00 | 0.00 | 68 | 1008.3 |
| 20260508034008 | 43 | 296 | 4.3 | 0.0 | 0.00 | 0.00 | 0.00 | 67 | 1008.3 |
| 20260508033507 | 44 | 290 | 6.1 | 0.0 | 0.00 | 0.00 | 0.00 | 65 | 1008.4 |
| 20260508033007 | 45 | 281 | 7.0 | 0.0 | 0.00 | 0.00 | 0.00 | 65 | 1008.4 |
| 20260508032508 | 45 | 276 | 7.0 | 0.0 | 0.00 | 0.00 | 0.00 | 66 | 1008.4 |
| 20260508032006 | 46 | 277 | 7.0 | 0.0 | 0.00 | 0.00 | 0.00 | 67 | 1008.5 |
| 20260508031507 | 46 | 284 | 7.0 | 0.0 | 0.00 | 0.00 | 0.00 | 66 | 1008.4 |
| 20260508031008 | 46 | 284 | 7.0 | 0.0 | 0.00 | 0.00 | 0.00 | 66 | 1008.3 |
| 20260508030510 | 46 | 287 | 7.0 | 0.0 | 0.00 | 0.00 | 0.00 | 63 | 1008.3 |
| 20260508030007 | 46 | 285 | 7.8 | 0.0 | 0.00 | 0.00 | 0.00 | 66 | 1008.2 |
| 20260508025505 | 46 | 285 | 7.8 | 0.0 | 0.00 | 0.00 | 0.00 | 66 | 1008.4 |
| 20260508025005 | 46 | 282 | 8.7 | 0.0 | 0.00 | 0.00 | 0.00 | 64 | 1008.4 |
| 20260508024505 | 46 | 274 | 9.6 | 0.0 | 0.00 | 0.00 | 0.00 | 65 | 1008.4 |
| 20260508024005 | 46 | 271 | 9.6 | 0.0 | 0.00 | 0.00 | 0.00 | 62 | 1008.5 |
| 20260508023505 | 46 | 275 | 10.4 | 0.0 | 0.00 | 0.00 | 0.00 | 64 | 1008.4 |
| 20260508023007 | 47 | 267 | 10.4 | 0.0 | 0.00 | 0.00 | 0.00 | 64 | 1008.6 |
| 20260508022504 | 47 | 268 | 10.4 | 0.0 | 0.00 | 0.00 | 0.00 | 65 | 1008.5 |
| 20260508022006 | 47 | 273 | 9.6 | 0.0 | 0.00 | 0.00 | 0.00 | 64 | 1008.6 |
| 20260508021505 | 47 | 270 | 9.6 | 0.0 | 0.00 | 0.00 | 0.00 | 63 | 1008.5 |
| 20260508021005 | 47 | 273 | 9.6 | 0.0 | 0.00 | 0.00 | 0.00 | 63 | 1008.5 |
| 20260508020504 | 47 | 279 | 8.7 | 0.0 | 0.00 | 0.00 | 0.00 | 62 | 1008.4 |
| 20260508020005 | 47 | 277 | 9.6 | 0.0 | 0.00 | 0.00 | 0.00 | 60 | 1008.4 |
| 20260508015504 | 47 | 276 | 10.4 | 0.0 | 0.00 | 0.00 | 0.00 | 63 | 1008.4 |
| 20260508015004 | 47 | 280 | 11.3 | 0.0 | 0.00 | 0.00 | 0.00 | 60 | 1008.4 |
| 20260508014505 | 47 | 276 | 11.3 | 0.0 | 0.00 | 0.00 | 0.00 | 60 | 1008.4 |
| 20260508014004 | 47 | 278 | 11.3 | 0.0 | 0.00 | 0.00 | 0.00 | 62 | 1008.3 |
| 20260508013502 | 47 | 270 | 11.3 | 0.0 | 0.00 | 0.00 | 0.00 | 60 | 1008.3 |
| 20260508013002 | 47 | 277 | 11.3 | 0.0 | 0.00 | 0.00 | 0.00 | 60 | 1008.3 |
| 20260508012505 | 48 | 279 | 11.3 | 0.0 | 0.00 | 0.00 | 0.00 | 59 | 1008.2 |
| 20260508012002 | 48 | 270 | 12.2 | 0.0 | 0.00 | 0.00 | 0.00 | 59 | 1008.2 |
| 20260508011502 | 48 | 271 | 12.2 | 0.0 | 0.00 | 0.00 | 0.00 | 61 | 1008.1 |
| 20260508011002 | 48 | 267 | 12.2 | 0.0 | 0.00 | 0.00 | 0.00 | 60 | 1008.1 |
| 20260508010501 | 48 | 271 | 12.2 | 0.0 | 0.00 | 0.00 | 0.00 | 59 | 1008.1 |
| 20260508010001 | 48 | 275 | 12.2 | 0.0 | 0.00 | 0.00 | 0.00 | 58 | 1008.1 |
| 20260508005501 | 48 | 267 | 12.2 | 0.0 | 0.00 | 0.00 | 0.00 | 58 | 1008.0 |
| 20260508005003 | 48 | 276 | 13.0 | 0.0 | 0.00 | 0.00 | 0.00 | 60 | 1007.9 |
| 20260508004501 | 48 | 271 | 12.2 | 0.0 | 0.00 | 0.00 | 0.00 | 60 | 1007.8 |
| 20260508004003 | 49 | 281 | 11.3 | 0.0 | 0.00 | 0.00 | 0.00 | 60 | 1007.7 |
| 20260508003600 | 49 | 269 | 10.4 | 0.0 | 0.00 | 0.00 | 0.00 | 61 | 1007.7 |
| 20260508003107 | 49 | 279 | 10.4 | 0.0 | 0.00 | 0.00 | 0.00 | 59 | 1007.6 |
| 20260508002603 | 49 | 275 | 11.3 | 0.0 | 0.00 | 0.00 | 0.00 | 58 | 1007.6 |
| 20260508002100 | 49 | 292 | 12.2 | 0.0 | 0.00 | 0.00 | 0.00 | 57 | 1007.5 |
| 20260508001600 | 49 | 294 | 13.0 | 0.0 | 0.00 | 0.00 | 0.00 | 53 | 1007.3 |
| 20260508001100 | 49 | 266 | 13.9 | 0.0 | 0.00 | 0.00 | 0.00 | 55 | 1007.3 |
| 20260508000600 | 50 | 275 | 14.8 | 0.0 | 0.00 | 0.00 | 0.00 | 59 | 1007.3 |
| 20260508000100 | 50 | 274 | 16.5 | 0.0 | 0.00 | 0.00 | 0.00 | 58 | 1007.3 |
| 20260507235559 | 50 | 274 | 16.5 | 0.0 | 0.00 | 0.00 | 0.00 | 57 | 1007.3 |
| 20260507235059 | 50 | 277 | 16.5 | 0.0 | 0.00 | 0.00 | 0.00 | 55 | 1007.3 |
| 20260507234559 | 50 | 274 | 16.5 | 0.0 | 0.00 | 0.00 | 0.00 | 56 | 1007.2 |
| 20260507234059 | 50 | 273 | 17.4 | 0.0 | 0.00 | 0.00 | 0.00 | 55 | 1007.1 |
| 20260507233558 | 51 | 272 | 18.2 | 0.0 | 0.00 | 0.00 | 0.00 | 53 | 1007.1 |
| 20260507233058 | 51 | 280 | 19.1 | 0.0 | 0.00 | 0.00 | 0.00 | 53 | 1007.1 |
| 20260507232558 | 51 | 273 | 20.0 | 0.0 | 0.00 | 0.00 | 0.00 | 54 | 1007.1 |
| 20260507232058 | 51 | 286 | 20.0 | 0.0 | 0.00 | 0.00 | 0.00 | 53 | 1007.0 |
| 20260507231600 | 51 | 297 | 20.0 | 0.0 | 0.00 | 0.00 | 0.00 | 51 | 1007.1 |
| 20260507231058 | 51 | 301 | 18.2 | 0.0 | 0.00 | 0.00 | 0.00 | 53 | 1007.1 |
| 20260507230602 | 51 | 290 | 17.4 | 0.0 | 0.00 | 0.00 | 0.00 | 50 | 1007.1 |
| 20260507230104 | 51 | 300 | 17.4 | 0.0 | 0.00 | 0.00 | 0.00 | 49 | 1007.0 |
| 20260507225558 | 51 | 280 | 16.5 | 0.0 | 0.00 | 0.00 | 0.00 | 53 | 1007.1 |
| 20260507225057 | 51 | 304 | 18.2 | 0.0 | 0.00 | 0.00 | 0.00 | 53 | 1007.1 |
| 20260507224603 | 52 | 296 | 19.1 | 0.0 | 0.00 | 0.00 | 0.00 | 51 | 1007.1 |
| 20260507224057 | 52 | 289 | 16.5 | 0.0 | 0.00 | 0.00 | 0.00 | 51 | 1007.0 |
| 20260507223556 | 52 | 278 | 15.6 | 0.0 | 0.00 | 0.00 | 0.00 | 55 | 1007.0 |
| 20260507223056 | 52 | 283 | 18.2 | 0.0 | 0.00 | 0.00 | 0.00 | 56 | 1007.0 |
| 20260507222559 | 52 | 281 | 19.1 | 0.0 | 0.00 | 0.00 | 0.00 | 53 | 1006.9 |
| 20260507222058 | 52 | 275 | 19.1 | 0.0 | 0.00 | 0.00 | 0.00 | 55 | 1007.0 |
| 20260507221556 | 52 | 290 | 19.1 | 0.0 | 0.00 | 0.00 | 0.00 | 50 | 1007.1 |
| 20260507221056 | 53 | 276 | 15.6 | 0.0 | 0.00 | 0.00 | 0.00 | 53 | 1007.0 |
| 20260507220555 | 53 | 262 | 15.6 | 0.0 | 0.00 | 0.00 | 0.00 | 54 | 1007.1 |
| 20260507220056 | 53 | 292 | 15.6 | 0.0 | 0.00 | 0.00 | 0.00 | 52 | 1007.1 |
| 20260507215555 | 53 | 280 | 17.4 | 0.0 | 0.00 | 0.00 | 0.00 | 57 | 1007.1 |
| 20260507215055 | 53 | 285 | 20.0 | 0.0 | 0.00 | 0.00 | 0.00 | 53 | 1007.1 |
| 20260507214604 | 54 | 275 | 19.1 | 0.0 | 0.00 | 0.00 | 0.00 | 51 | 1007.0 |
| 20260507214055 | 54 | 279 | 19.1 | 0.0 | 0.00 | 0.00 | 0.00 | 54 | 1007.0 |
| 20260507213554 | 54 | 265 | 20.0 | 0.0 | 0.00 | 0.00 | 0.00 | 54 | 1007.0 |
| 20260507213056 | 54 | 257 | 19.1 | 0.0 | 0.00 | 0.00 | 0.00 | 54 | 1007.0 |
| 20260507212554 | 54 | 259 | 17.4 | 0.0 | 0.00 | 0.00 | 0.00 | 56 | 1007.0 |
| 20260507212057 | 54 | 277 | 20.0 | 0.0 | 0.00 | 0.00 | 0.00 | 56 | 1007.0 |
| 20260507211559 | 54 | 267 | 20.0 | 0.0 | 0.00 | 0.00 | 0.00 | 55 | 1007.0 |
| 20260507211053 | 54 | 264 | 17.4 | 0.0 | 0.00 | 0.00 | 0.00 | 58 | 1007.0 |
| 20260507210553 | 54 | 265 | 19.1 | 0.0 | 0.00 | 0.00 | 0.00 | 55 | 1007.0 |
| 20260507210100 | 54 | 273 | 19.1 | 0.0 | 0.00 | 0.00 | 0.00 | 56 | 1006.9 |
| 20260507205553 | 54 | 272 | 19.1 | 0.0 | 0.00 | 0.00 | 0.00 | 57 | 1007.0 |
| 20260507205052 | 54 | 278 | 18.2 | 0.0 | 0.00 | 0.00 | 0.00 | 57 | 1007.0 |
| 20260507204555 | 54 | 271 | 18.2 | 0.0 | 0.00 | 0.00 | 0.00 | 60 | 1007.0 |
| 20260507204055 | 54 | 267 | 18.2 | 0.0 | 0.00 | 0.00 | 0.00 | 59 | 1007.0 |
| 20260507203551 | 53 | 263 | 18.2 | 0.0 | 0.00 | 0.00 | 0.00 | 57 | 1006.9 |
| 20260507203105 | 54 | 273 | 19.1 | 0.0 | 0.00 | 0.00 | 0.00 | 59 | 1007.0 |
| 20260507202551 | 53 | 255 | 19.1 | 0.0 | 0.00 | 0.00 | 0.00 | 58 | 1007.0 |
| 20260507202051 | 53 | 276 | 17.4 | 0.0 | 0.00 | 0.00 | 0.00 | 61 | 1007.0 |
| 20260507201558 | 52 | 274 | 15.6 | 0.0 | 0.00 | 0.00 | 0.00 | 58 | 1006.9 |
| 20260507201052 | 52 | 274 | 14.8 | 0.0 | 0.00 | 0.00 | 0.00 | 60 | 1007.1 |
| 20260507200551 | 52 | 302 | 17.4 | 0.0 | 0.00 | 0.00 | 0.00 | 55 | 1007.2 |
| 20260507200104 | 53 | 308 | 20.9 | 0.0 | 0.00 | 0.00 | 0.00 | 50 | 1007.3 |
| 20260507195548 | 54 | 274 | 20.0 | 0.0 | 0.00 | 0.00 | 0.00 | 58 | 1007.2 |
| 20260507195049 | 53 | 265 | 17.4 | 0.0 | 0.00 | 0.00 | 0.00 | 61 | 1007.2 |
| 20260507194548 | 53 | 285 | 13.9 | 0.0 | 0.00 | 0.00 | 0.00 | 61 | 1007.4 |
| 20260507194047 | 53 | 304 | 13.9 | 0.0 | 0.00 | 0.00 | 0.00 | 58 | 1007.4 |
| 20260507193546 | 53 | 283 | 15.6 | 0.0 | 0.00 | 0.00 | 0.00 | 58 | 1007.5 |
| 20260507193049 | 53 | 282 | 17.4 | 0.0 | 0.00 | 0.00 | 0.00 | 55 | 1007.4 |
| 20260507192546 | 53 | 285 | 16.5 | 0.0 | 0.00 | 0.00 | 0.00 | 60 | 1007.5 |
| 20260507192045 | 53 | 317 | 18.2 | 0.0 | 0.00 | 0.00 | 0.00 | 54 | 1007.4 |
| 20260507191546 | 53 | 259 | 19.1 | 0.0 | 0.00 | 0.00 | 0.00 | 60 | 1007.5 |
| 20260507191046 | 53 | 268 | 19.1 | 0.0 | 0.00 | 0.00 | 0.00 | 60 | 1007.4 |
| 20260507190548 | 53 | 271 | 18.2 | 0.0 | 0.00 | 0.00 | 0.00 | 57 | 1007.4 |
| 20260507190048 | 54 | 263 | 18.2 | 0.0 | 0.00 | 0.00 | 0.00 | 61 | 1007.5 |
| 20260507185549 | 54 | 278 | 17.4 | 0.0 | 0.00 | 0.00 | 0.00 | 59 | 1007.6 |
| 20260507185046 | 54 | 264 | 17.4 | 0.0 | 0.00 | 0.00 | 0.00 | 62 | 1007.6 |
| 20260507184547 | 53 | 279 | 16.5 | 0.0 | 0.00 | 0.00 | 0.00 | 64 | 1007.7 |
| 20260507184043 | 53 | 281 | 13.0 | 0.0 | 0.00 | 0.00 | 0.00 | 61 | 1007.7 |
| 20260507183541 | 53 | 259 | 12.2 | 0.0 | 0.00 | 0.00 | 0.00 | 57 | 1007.7 |
| 20260507183047 | 53 | 292 | 13.9 | 0.0 | 0.00 | 0.00 | 0.00 | 59 | 1007.8 |
| 20260507182541 | 53 | 286 | 13.9 | 0.0 | 0.00 | 0.00 | 0.00 | 64 | 1007.9 |
| 20260507182044 | 52 | 296 | 14.8 | 0.0 | 0.00 | 0.00 | 0.00 | 64 | 1008.0 |